GEFSSE_con_cape1000_096.txt.gz
Probability
61 100 100 100 100 100 100 100 100 100 100 100 100 100 100 100 100 100 100 100 100 100 100 100 100 100 100 97 97 97 97 97 97 97 97 97 97 97 97 100 94 77 87
77 100 100 100 100 100 100 100 100 100 100 100 100 100 100 100 100 100 100 100 100 100 100 100 100 97 100 100 97 97 97 100 100 100 97 97 97 97 100 100 87 87 100
90 100 100 100 100 100 100 100 100 100 100 100 100 100 100 100 100 100 100 100 100 100 100 100 100 100 100 100 100 100 100 100 100 100 97 90 94 97 100 100 100 100 100
94 100 100 100 100 100 100 100 100 100 100 100 100 100 100 100 100 100 100 100 100 100 94 97 97 97 100 100 100 100 100 100 100 100 81 90 94 100 100 100 100 100 100
97 100 100 100 100 100 100 100 100 100 100 100 100 100 100 100 100 100 100 100 100 100 97 97 97 97 97 100 100 100 100 100 97 81 55 68 94 100 100 100 100 100 100
97 100 100 100 100 100 100 100 100 100 100 100 100 100 100 100 100 100 100 100 100 100 97 97 97 97 97 97 94 97 97 94 94 35 45 61 94 100 100 100 100 100 100
97 100 100 100 100 100 100 100 100 100 100 100 100 100 100 100 100 100 100 100 100 97 97 97 97 97 97 94 90 87 90 87 55 45 42 58 87 100 100 100 100 100 100
97 100 100 100 100 100 100 100 100 100 100 100 100 100 100 100 100 100 100 100 100 100 100 100 100 100 100 97 90 94 94 87 74 42 32 52 81 97 100 100 100 100 100
100 100 100 100 100 100 100 100 100 100 100 100 100 100 100 100 100 100 100 100 100 100 100 100 100 97 94 97 90 90 90 90 61 52 29 42 84 97 100 100 100 100 100
100 100 100 100 100 100 100 100 100 100 100 100 100 100 100 100 100 100 100 100 100 100 100 100 100 100 100 97 94 94 90 94 71 52 48 26 81 97 100 100 100 100 100
100 100 100 100 100 100 100 100 100 100 100 100 100 100 100 97 97 100 100 100 100 100 100 97 97 100 97 97 94 94 90 90 77 55 48 42 97 100 100 97 100 100 100
97 100 100 100 100 100 100 94 97 100 97 97 97 97 97 97 97 97 100 100 100 100 97 97 97 97 94 94 90 97 94 87 68 45 42 68 94 100 100 100 100 100 100
94 100 100 100 94 94 94 94 94 97 97 97 97 97 97 97 97 94 94 94 94 94 94 94 90 94 94 94 90 87 90 94 84 68 42 77 94 100 100 100 100 100 100
84 94 100 97 94 90 90 90 94 97 97 97 97 97 97 97 97 90 90 84 87 87 94 90 90 94 87 84 84 84 84 90 84 77 61 74 87 94 97 100 100 100 100
68 87 84 87 90 84 84 84 90 97 97 94 94 90 94 87 84 81 81 84 81 77 84 87 77 74 74 65 65 68 71 77 77 81 61 71 94 94 94 97 97 97 97
74 74 65 74 77 77 77 77 77 77 77 77 77 74 84 77 71 71 65 61 55 52 65 58 52 58 55 52 55 61 58 58 65 74 61 61 77 87 94 90 94 97 97
65 61 61 61 74 68 74 68 61 61 68 68 65 65 55 58 58 55 52 45 35 32 32 39 35 39 42 45 42 42 52 52 52 55 65 48 42 77 90 87 100 97 97
35 39 45 74 55 48 45 42 45 45 39 45 48 48 52 48 48 48 45 42 32 29 29 29 29 29 35 26 19 19 23 26 35 42 48 52 42 26 58 87 87 100 94
29 32 35 35 35 35 32 32 32 23 16 16 13 26 29 35 39 39 39 29 26 19 26 19 23 16 13 13 13 13 10 10 16 19 23 29 32 29 26 29 84 87 87
19 23 29 19 13 13 13 10 6 6 3 0 6 6 13 16 23 23 23 19 10 10 10 13 13 6 3 6 6 6 6 10 6 10 13 16 10 16 13 16 42 55 77
13 10 10 10 10 6 10 6 0 0 0 3 0 0 0 3 3 6 6 6 6 6 6 0 3 6 3 3 6 3 0 3 3 3 3 10 6 6 10 13 23 32 48
16 13 13 10 10 3 0 0 0 0 0 0 0 0 0 0 0 0 6 3 0 0 0 0 0 0 0 0 0 0 0 0 0 3 3 3 3 3 6 10 19 26 32
10 10 13 3 0 0 0 0 0 0 0 0 0 0 0 0 0 0 0 0 0 0 0 0 0 0 0 0 0 0 0 0 0 0 0 3 3 3 3 6 10 23 23
3 0 0 0 0 0 0 0 0 0 0 0 0 0 0 0 0 0 0 0 0 0 0 0 0 0 0 0 0 0 0 0 0 0 0 0 0 3 0 0 0 6 13
6 0 0 0 0 0 0 0 0 0 0 0 0 0 0 0 0 0 0 0 0 0 0 0 0 0 0 0 0 0 0 0 0 0 0 0 0 0 0 0 0 6 6
3 0 0 0 0 0 0 0 0 0 0 0 0 0 0 0 0 0 0 0 0 0 0 0 0 0 0 0 0 0 0 0 0 0 0 0 0 0 0 0 0 0 0

GEFSSE_con_cape1000_102.txt.gz
Probability
74 100 100 100 100 100 100 100 100 100 100 100 100 100 100 100 100 100 100 100 97 100 100 97 97 97 94 94 94 94 97 97 94 97 97 97 97 94 94 90 97 74 90
77 100 100 100 100 100 100 100 100 100 100 100 100 100 100 100 100 100 100 97 97 100 100 100 97 97 97 97 97 97 97 97 97 97 97 97 97 97 100 90 97 84 97
100 100 100 100 100 100 100 100 100 100 100 100 100 100 100 100 100 100 100 97 97 100 100 100 97 97 97 97 97 97 97 97 97 97 94 77 87 100 97 100 97 97 97
100 100 100 100 100 100 100 100 100 100 100 100 100 100 100 100 100 100 100 100 97 100 100 97 94 97 100 100 97 97 97 97 100 97 71 71 77 97 100 100 100 97 94
100 100 100 100 100 100 100 100 100 100 100 100 100 100 100 100 100 100 100 97 97 94 97 97 97 87 97 100 100 100 100 97 97 84 48 61 90 100 100 100 100 100 97
97 100 100 100 100 100 100 100 100 100 100 100 100 100 100 100 100 100 97 97 97 94 94 97 94 94 90 100 100 100 100 97 90 32 48 61 97 100 97 97 97 100 100
90 100 100 100 100 100 100 100 100 100 100 100 100 100 100 100 100 100 100 97 97 97 94 97 94 87 81 87 90 94 94 90 77 23 48 58 97 100 100 100 100 100 100
87 100 100 100 100 100 100 100 100 100 100 100 100 100 100 100 100 100 100 100 100 97 94 97 97 97 90 87 81 87 90 90 45 6 26 61 100 97 100 100 100 100 100
81 94 100 100 100 100 100 100 100 100 100 100 100 100 100 100 100 100 100 100 100 100 97 97 97 97 97 97 94 90 90 90 65 42 29 65 97 100 100 100 100 100 100
90 94 100 100 100 100 100 100 100 100 100 100 100 100 100 100 100 100 100 100 100 100 100 97 90 90 90 94 94 94 94 87 58 58 68 87 100 97 100 100 100 100 100
100 100 100 100 100 100 100 100 100 100 100 100 100 100 100 100 100 100 100 100 100 100 100 97 94 94 97 94 94 90 87 71 58 58 68 97 100 100 100 100 100 100 100
100 100 100 100 100 100 100 100 100 100 100 100 100 100 100 100 100 97 97 97 100 100 100 97 94 97 97 84 90 87 68 55 48 61 74 100 97 100 100 100 100 100 100
100 100 100 100 100 100 100 100 97 97 100 100 100 100 97 97 97 97 97 97 97 97 97 94 94 97 90 84 84 77 42 32 45 42 61 97 97 94 100 100 97 100 100
100 100 100 100 100 100 100 97 97 94 97 97 94 97 94 97 97 97 97 90 97 97 97 97 94 90 94 81 68 61 42 42 39 48 74 94 100 94 90 97 97 97 100
100 100 100 100 97 97 100 100 90 97 94 90 90 90 87 87 90 94 90 87 94 90 84 87 84 90 84 77 77 61 55 55 39 35 65 84 100 100 97 90 97 97 94
97 100 100 97 97 100 97 94 94 90 94 94 90 84 84 77 87 84 81 77 71 74 81 81 74 81 74 71 71 68 68 65 65 68 65 77 90 94 94 97 94 97 90
94 97 97 97 97 97 97 90 84 84 94 94 84 84 81 77 84 71 74 71 65 68 77 71 55 58 68 65 58 61 77 74 71 71 71 74 81 90 94 90 94 97 94
87 90 94 81 90 97 97 87 84 81 81 81 77 77 71 74 65 71 58 65 77 77 65 61 61 52 52 52 55 58 65 74 61 65 61 68 71 68 81 90 94 90 90
81 81 77 87 84 90 84 84 68 68 65 58 74 71 68 65 65 61 65 68 65 65 55 52 45 52 52 52 45 48 52 52 61 45 48 55 68 77 77 81 87 90 94
68 74 74 74 81 77 74 68 65 58 48 48 48 55 58 61 52 58 61 65 65 65 65 58 52 61 55 45 26 23 52 52 52 48 55 48 71 68 68 71 84 74 81
61 58 65 61 68 68 48 45 39 32 32 35 35 39 39 35 26 48 39 48 55 42 52 42 42 35 45 45 35 26 39 42 42 58 58 58 45 55 61 71 74 74 77
35 42 52 52 52 45 45 55 42 39 29 23 23 29 26 23 23 19 26 35 23 35 32 42 48 39 26 32 39 32 23 26 42 10 42 48 45 52 45 45 77 84 74
32 35 35 42 45 42 39 39 39 42 35 16 19 26 19 16 16 16 16 13 23 19 16 26 29 26 26 23 32 26 16 6 13 16 23 26 55 55 32 42 39 55 65
32 35 45 39 29 39 39 32 26 19 10 6 16 13 13 13 16 13 13 13 10 10 10 3 10 10 23 29 23 26 10 3 10 0 13 16 29 35 32 13 19 32 42
29 23 23 26 26 26 26 29 32 10 6 6 10 10 6 10 10 10 13 13 10 6 6 3 3 6 16 16 16 16 16 23 10 6 0 3 10 13 13 19 26 32 35
10 10 6 16 16 16 13 13 13 6 10 3 6 6 6 3 10 6 10 10 10 6 6 3 6 10 10 13 13 10 10 10 13 13 6 10 6 10 10 13 23 29 32

GEFSSE_con_cape1000_108.txt.gz
Probability
97 100 100 100 100 100 100 100 100 100 100 100 100 100 100 100 100 100 97 97 100 100 97 97 97 84 87 87 90 94 97 94 90 97 94 94 94 97 97 94 90 84 94
100 100 100 100 100 100 100 100 100 100 100 100 100 100 100 100 100 100 97 97 97 97 97 94 94 94 94 90 97 97 97 94 94 94 94 90 90 97 97 90 97 84 94
100 100 100 100 100 100 100 100 100 100 100 100 100 100 100 100 100 100 97 97 94 97 94 97 97 97 97 97 97 97 94 94 87 94 97 65 81 97 97 94 90 90 90
100 100 100 100 100 100 100 100 100 100 100 100 100 100 100 100 100 100 97 97 94 90 87 87 87 90 90 94 94 90 90 81 94 94 90 71 68 94 97 97 97 90 94
100 100 100 100 100 100 100 100 100 100 100 100 100 100 100 100 100 97 90 90 87 87 90 87 77 81 90 94 87 90 87 84 94 97 90 90 90 100 100 97 97 94 94
100 100 100 100 100 100 100 100 100 100 100 100 100 100 100 100 100 94 90 94 90 97 94 87 77 68 77 87 87 87 87 87 94 81 94 94 94 100 100 100 94 97 94
100 100 100 100 100 100 100 100 100 100 100 100 100 100 100 100 100 100 94 97 94 97 97 94 84 68 65 74 84 81 84 94 100 90 90 100 97 100 100 97 100 97 94
100 100 100 100 100 100 100 100 100 100 100 100 100 100 100 100 100 100 100 97 94 94 94 87 87 81 61 68 71 81 87 90 84 77 84 100 100 100 100 100 100 97 100
100 100 100 100 100 100 100 100 100 100 100 100 100 100 100 100 100 100 100 100 97 94 94 94 90 90 90 81 77 94 94 97 81 87 81 97 100 100 100 100 100 100 100
100 100 100 100 100 100 100 100 100 100 100 100 100 100 100 100 100 100 100 100 97 94 90 94 97 97 94 81 87 94 97 97 55 58 84 97 100 100 100 100 100 100 100
100 100 100 100 100 100 100 100 100 100 100 100 100 100 100 100 100 100 100 100 100 100 97 97 97 97 100 100 97 100 97 71 35 42 81 100 100 100 100 100 100 100 100
100 100 100 100 100 100 97 100 100 100 100 100 100 100 100 100 100 100 100 97 97 100 100 100 100 97 97 97 94 97 74 55 32 42 81 90 97 100 100 100 100 100 100
100 97 97 97 97 97 100 100 100 100 100 100 100 100 100 100 100 100 100 100 97 97 94 97 94 90 90 87 87 84 74 39 23 32 71 90 94 100 100 100 100 100 100
90 94 94 94 94 94 94 97 94 94 97 97 94 94 94 97 97 100 100 90 94 90 90 84 87 90 90 87 81 74 68 52 32 45 65 81 94 97 100 100 100 100 100
94 90 90 97 90 94 94 94 87 87 87 87 87 87 90 90 94 97 94 77 74 74 74 74 84 81 81 84 81 71 65 55 42 48 52 68 74 94 94 94 100 100 97
90 87 94 97 94 90 90 90 87 84 90 84 87 94 94 84 87 90 87 77 71 71 65 65 58 65 58 71 68 71 68 61 58 65 48 58 74 90 97 90 97 100 97
90 90 100 100 94 94 94 87 87 87 90 90 90 90 90 87 81 84 71 74 74 71 61 68 55 58 45 52 55 58 52 45 52 65 58 58 58 81 84 94 94 97 97
84 90 90 81 90 90 94 87 87 87 90 87 87 90 84 81 74 71 65 68 65 68 68 61 55 48 45 48 45 48 42 48 48 42 45 48 48 52 71 90 94 97 97
81 90 90 90 90 87 87 84 84 77 81 77 74 71 71 65 61 58 74 68 61 61 65 42 48 45 35 39 42 35 35 35 42 45 45 42 45 55 58 68 87 94 97
77 84 84 87 90 90 81 81 77 71 65 68 68 61 48 55 55 61 65 65 55 61 55 61 55 48 42 42 13 10 26 26 42 42 42 39 42 48 45 39 71 74 94
74 84 77 81 81 87 81 77 71 65 65 65 58 52 42 39 42 52 48 52 58 48 48 48 55 45 42 39 32 10 19 16 26 32 32 32 39 42 35 42 55 48 58
71 84 81 81 74 71 84 77 74 71 58 55 52 48 35 32 32 19 39 32 29 35 26 32 26 26 26 16 16 3 0 3 19 6 32 35 35 35 42 42 58 61 45
42 58 48 68 65 61 45 48 45 52 58 42 42 48 35 26 26 23 23 29 26 26 16 19 23 19 13 10 13 3 0 0 13 16 13 19 42 55 45 48 55 65 55
45 42 52 55 45 35 39 39 39 32 26 35 35 35 29 16 16 23 19 19 19 13 13 10 6 10 10 6 10 10 3 6 0 0 10 10 23 42 45 29 42 42 45
23 26 45 42 42 32 26 29 26 23 26 23 26 23 19 13 13 13 13 16 16 10 10 10 10 10 6 3 3 6 6 3 6 0 0 6 6 16 55 55 45 55 45
16 16 19 32 32 26 23 23 19 26 23 13 16 13 16 16 13 10 6 6 10 10 10 6 6 6 10 3 3 3 3 3 3 0 0 3 3 6 23 35 29 39 45

GEFSSE_con_cape1000_114.txt.gz
Probability
100 100 100 100 100 100 100 100 100 100 100 100 100 100 100 100 100 100 100 100 100 100 100 100 100 97 97 97 97 97 97 97 97 97 97 97 97 97 97 94 84 87 97
100 100 100 100 100 100 100 100 100 100 100 100 100 100 100 100 100 100 100 100 100 100 100 100 100 100 97 97 97 97 97 97 97 97 97 94 97 97 94 94 90 90 94
100 100 100 100 100 100 100 100 100 100 100 100 100 100 100 100 100 100 100 100 100 100 100 100 100 100 97 97 97 97 97 97 97 97 94 84 87 94 97 94 94 90 90
100 100 100 100 100 100 100 100 100 100 100 100 100 100 100 100 100 100 100 100 100 100 100 100 100 97 97 97 97 97 97 97 97 94 52 65 71 94 97 94 94 94 94
100 100 100 100 100 100 100 100 100 100 100 100 100 100 100 100 100 100 100 100 100 100 100 100 100 97 97 94 97 97 97 97 97 84 48 52 74 94 97 97 94 90 94
100 100 100 100 100 100 100 100 100 100 100 100 100 100 100 100 100 100 100 100 100 100 100 97 94 94 94 97 90 87 97 97 90 55 48 58 81 94 100 100 94 94 97
100 100 100 100 100 100 100 100 100 100 100 100 100 100 100 100 100 100 100 100 100 100 100 100 97 84 94 94 87 84 90 94 55 32 35 58 90 100 100 100 100 97 90
100 100 100 100 100 100 100 100 100 100 100 100 100 100 100 100 100 100 97 100 100 100 100 100 100 94 84 87 90 94 90 90 65 45 55 61 94 97 100 100 100 97 94
100 100 100 100 100 100 100 100 100 100 100 100 100 100 100 100 100 100 100 100 97 100 100 100 100 97 94 87 90 100 100 97 45 42 58 65 94 97 100 100 100 97 94
94 100 100 100 100 100 100 100 100 100 100 100 100 100 100 100 100 100 100 100 100 100 100 97 94 94 94 97 90 97 100 84 32 26 42 74 94 94 97 100 100 100 97
84 87 97 97 97 97 100 100 100 100 100 100 100 100 100 100 100 100 100 100 100 100 100 100 100 100 97 97 100 100 94 39 26 23 35 87 94 94 97 100 100 100 100
84 84 87 90 94 94 94 90 90 94 97 97 94 94 94 84 87 97 97 100 100 100 100 100 97 97 97 71 74 97 77 42 23 10 42 94 94 94 97 97 100 100 100
81 84 84 81 81 84 87 87 87 87 87 87 87 90 94 81 77 84 74 90 90 87 87 90 87 81 71 52 48 48 45 35 16 13 32 84 87 90 90 90 97 100 100
77 81 84 77 74 77 77 81 87 84 77 77 74 77 61 52 65 52 65 61 68 68 71 68 65 71 71 65 45 32 39 29 10 3 16 81 84 87 84 90 94 97 100
77 77 74 74 74 74 74 71 61 65 74 71 68 65 61 55 48 45 45 48 45 52 48 45 52 55 48 42 39 32 19 16 19 10 10 61 81 81 81 87 94 94 100
61 74 71 74 74 68 65 65 55 52 52 55 58 55 52 48 42 32 29 29 29 29 29 19 32 32 26 26 23 29 23 16 16 10 13 45 74 77 74 81 87 94 97
55 68 68 71 68 65 68 65 65 52 48 45 42 35 42 35 26 23 26 16 16 16 16 6 13 10 10 13 10 13 13 6 13 10 6 10 35 55 68 71 90 94 94
48 52 52 65 52 52 61 58 58 45 35 35 35 29 26 23 19 13 10 10 13 10 10 3 3 3 3 3 3 3 3 0 3 3 3 6 10 29 45 68 77 94 94
52 55 52 55 48 48 42 42 35 26 23 19 23 19 19 16 13 10 13 13 6 6 0 3 0 0 0 3 0 0 3 0 0 3 3 3 3 10 10 29 71 84 90
45 42 39 35 35 35 32 32 26 19 10 3 6 10 6 6 10 3 3 3 3 0 0 0 0 0 0 0 0 0 0 0 0 0 3 3 0 3 3 13 26 39 81
42 32 26 23 23 26 23 19 10 6 3 3 3 10 6 6 6 0 0 0 0 0 0 0 0 0 0 0 0 0 0 0 0 0 0 0 0 0 3 6 6 16 29
19 19 19 23 23 23 16 13 10 6 3 3 3 3 3 3 3 3 0 0 0 0 0 0 0 0 0 0 0 0 0 0 0 0 0 0 0 0 3 6 10 10 6
13 13 13 13 13 13 10 3 0 0 0 0 0 0 3 3 6 3 3 3 0 0 0 0 0 0 0 0 0 0 0 0 0 0 0 0 0 0 0 0 0 6 6
13 10 10 10 6 6 0 0 0 0 0 0 0 0 0 0 3 3 3 0 0 0 0 0 0 0 0 0 0 0 0 0 0 0 0 0 0 0 0 0 0 0 0
13 13 10 6 6 3 3 0 0 0 0 0 0 0 0 0 0 0 0 0 0 0 0 0 0 0 0 0 0 0 0 0 0 0 0 0 0 0 0 0 0 0 0
6 10 10 6 3 3 0 0 0 0 0 0 0 0 0 0 0 0 0 0 0 0 0 0 0 0 0 0 0 0 0 0 0 0 0 0 0 0 0 0 0 0 0

GEFSSE_con_cape1000_120.txt.gz
Probability
87 97 100 100 100 100 100 100 100 100 100 100 100 100 100 100 100 100 100 97 100 100 100 97 97 94 94 94 94 97 97 90 94 84 87 87 81 87 90 94 94 90 97
94 100 100 100 100 100 100 100 100 100 100 100 100 100 100 100 100 100 100 100 100 100 100 97 97 97 97 97 97 97 97 97 97 94 84 87 90 94 94 94 97 97 97
97 100 100 100 100 100 100 100 100 100 100 100 100 100 100 100 100 100 100 100 100 100 100 100 97 97 97 97 97 97 97 97 97 90 87 74 81 94 94 94 97 97 97
100 100 100 100 100 100 100 100 100 100 100 100 100 100 100 100 100 100 100 100 100 100 100 100 100 97 97 97 97 97 94 100 97 94 71 68 74 87 90 90 94 97 94
100 100 100 100 100 100 100 100 100 100 100 100 100 100 100 100 100 100 100 100 100 100 100 97 97 94 94 97 97 94 97 97 97 77 55 74 81 94 94 94 90 90 94
100 100 100 100 100 100 100 100 100 100 100 100 100 100 100 100 100 97 100 100 100 100 94 94 94 97 94 94 94 94 97 94 90 58 61 71 84 94 94 94 90 90 94
100 100 100 100 100 100 100 100 100 100 100 100 100 100 100 100 100 100 97 100 100 97 94 87 94 97 94 94 90 87 90 90 35 61 65 74 90 97 97 97 94 90 94
100 100 100 100 100 100 100 100 100 100 100 100 100 100 100 100 100 100 100 100 100 100 100 94 90 90 90 94 94 87 84 87 61 52 68 71 87 97 100 94 94 90 94
97 100 100 100 100 100 100 100 100 100 100 100 100 100 100 100 97 97 97 100 100 100 100 100 100 97 90 90 97 100 90 81 26 52 55 68 94 100 97 97 94 97 90
97 97 94 97 100 100 100 100 100 100 100 100 100 100 100 100 100 100 100 100 97 100 97 94 90 94 100 97 94 100 100 74 26 45 65 71 94 97 100 97 97 94 94
94 94 94 94 97 100 100 100 100 97 100 100 100 100 100 100 94 100 100 100 97 100 94 94 97 94 97 97 94 97 87 32 29 39 55 77 97 97 97 97 97 97 94
84 81 87 90 90 94 94 90 90 90 87 90 94 94 90 84 84 97 100 100 97 94 94 94 97 97 97 77 71 81 52 39 26 39 55 87 94 97 97 100 97 97 94
77 81 84 84 84 87 87 90 87 87 87 87 87 87 77 71 65 77 77 81 87 87 87 81 90 87 77 55 45 42 32 32 32 29 39 77 94 94 97 100 100 97 97
68 68 74 74 77 81 87 81 81 84 84 81 81 71 55 48 45 55 55 65 58 65 71 68 65 65 61 52 42 35 32 32 29 23 16 68 87 94 94 100 97 97 94
65 68 65 68 68 71 74 74 81 77 77 68 65 61 55 45 32 35 35 39 42 42 48 48 45 45 48 42 42 45 29 19 23 26 16 55 84 84 90 90 90 90 90
55 61 58 58 58 61 61 61 55 55 61 58 55 48 42 35 35 29 23 26 26 32 32 26 32 35 32 35 29 32 26 16 16 16 26 29 61 84 87 94 87 81 87
39 45 48 48 52 55 52 48 39 42 39 39 32 29 26 29 23 16 13 13 16 16 13 6 6 6 10 10 6 16 23 16 13 13 23 26 32 61 74 81 74 71 77
32 32 35 48 45 39 35 29 16 16 16 13 6 10 26 26 19 10 6 6 6 13 10 6 3 3 3 3 3 3 3 10 13 10 16 16 23 23 55 68 74 68 71
23 32 32 42 39 32 23 13 16 13 0 0 3 3 3 6 10 0 3 3 3 3 3 0 0 0 0 0 0 0 0 0 3 3 6 6 13 16 26 35 58 65 71
19 23 29 26 29 19 10 3 3 0 0 0 3 3 3 3 3 0 0 0 0 0 0 0 0 0 0 0 0 0 0 0 0 0 0 0 3 6 16 16 29 42 55
16 13 16 16 13 13 6 3 3 3 0 0 0 0 3 3 3 0 3 0 0 0 0 0 0 0 0 0 0 0 0 0 0 0 0 0 0 0 0 6 13 16 26
10 10 13 13 6 6 3 0 0 0 0 0 0 0 0 0 0 0 0 0 0 0 0 0 0 0 0 0 0 0 0 0 0 0 0 0 0 0 0 0 0 0 3
6 6 6 6 3 3 0 0 0 0 0 0 0 0 0 0 0 0 0 0 0 0 0 0 0 0 0 0 0 0 0 0 0 0 0 0 0 0 0 0 0 3 3
6 6 6 3 3 0 0 0 0 0 0 0 0 0 0 0 0 0 0 0 0 0 0 0 0 0 0 0 0 0 0 0 0 0 0 0 0 0 0 0 0 0 3
6 6 3 3 0 0 0 0 0 0 0 0 0 0 0 0 0 0 0 0 0 0 0 0 0 0 0 0 0 0 0 0 0 0 0 0 0 0 0 0 0 0 0
6 6 3 0 0 0 0 0 0 0 0 0 0 0 0 0 0 0 0 0 0 0 0 0 0 0 0 0 0 0 0 0 0 0 0 0 0 0 0 0 0 0 0